{"data":{"norad_id":55748,"epoch":"2026-05-25T03:50:07.314432Z","epoch_age_seconds":71441,"freshness":"FRESH","line1":"1 55748U 23028H   26145.15980688  .00000515  00000+0  50972-4 0  9994","line2":"2 55748  70.0009  51.6906 0003014 268.2278  91.8536 14.98331016177493","mean_motion":14.98331016,"eccentricity":0.0003014,"inclination_deg":70.0009,"raan_deg":51.6906,"arg_perigee_deg":268.2278,"mean_anomaly_deg":91.8536,"bstar":5.0972e-5,"rev_number":17749,"period_min":96.106933956709,"perigee_km":569.95796185964,"apogee_km":574.14753624036,"semimajor_km":6950.18974905,"source":"CELESTRAK","updated_at":"2026-05-25T13:38:17.879153Z"}}